Time,TemperatureF,DewpointF,PressureIn,WindDirection,WindDirectionDegrees,WindSpeedMPH,WindSpeedGustMPH,Humidity,HourlyPrecipIn,Conditions,Clouds,dailyrainin,SoftwareType,DateUTC
2013-03-16 00:00:00,30.2,27.4,29.86,ENE,67,2.0,7.0,89,0.00,,---,0.01,VWS V14.01,2013-03-16 04:00:00,
2013-03-16 00:05:00,30.1,27.3,29.86,NE,52,3.0,6.0,89,0.00,,---,0.01,VWS V14.01,2013-03-16 04:05:00,
2013-03-16 00:10:00,30.0,27.2,29.86,East,82,4.0,4.0,89,0.00,,---,0.00,VWS V14.01,2013-03-16 04:10:00,
2013-03-16 00:15:00,29.8,27.2,29.86,East,91,0.0,4.0,90,0.00,,---,0.00,VWS V14.01,2013-03-16 04:15:00,
2013-03-16 00:20:00,29.6,27.0,29.86,NNE,20,3.0,8.0,90,0.00,,---,0.00,VWS V14.01,2013-03-16 04:20:00,
2013-03-16 00:25:00,29.5,26.9,29.85,ENE,71,1.0,5.0,90,0.00,,---,0.00,VWS V14.01,2013-03-16 04:25:00,
2013-03-16 00:30:00,29.4,26.8,29.86,ENE,67,1.0,3.0,90,0.00,,---,0.00,VWS V14.01,2013-03-16 04:30:00,
2013-03-16 00:35:00,29.3,27.0,29.85,NE,53,4.0,4.0,91,0.00,,---,0.00,VWS V14.01,2013-03-16 04:35:00,
2013-03-16 00:40:00,29.3,27.0,29.86,ENE,77,0.0,3.0,91,0.00,,---,0.00,VWS V14.01,2013-03-16 04:40:00,
2013-03-16 00:45:00,29.2,27.2,29.86,NNE,25,3.0,3.0,92,0.00,,---,0.00,VWS V14.01,2013-03-16 04:45:00,
2013-03-16 00:50:00,29.2,27.2,29.86,NE,49,1.0,3.0,92,0.00,,---,0.00,VWS V14.01,2013-03-16 04:50:00,
2013-03-16 00:55:00,29.0,27.0,29.86,ENE,68,1.0,3.0,92,0.00,,---,0.00,VWS V14.01,2013-03-16 04:55:00,
2013-03-16 01:00:00,29.0,27.0,29.86,ENE,65,1.0,5.0,92,0.00,,---,0.00,VWS V14.01,2013-03-16 05:00:00,
2013-03-16 01:05:00,28.9,26.9,29.86,NNE,33,1.0,7.0,92,0.00,,---,0.00,VWS V14.01,2013-03-16 05:05:00,
2013-03-16 01:10:00,28.8,26.8,29.85,ENE,77,1.0,4.0,92,0.00,,---,0.00,VWS V14.01,2013-03-16 05:10:00,
2013-03-16 01:15:00,28.7,26.7,29.85,NE,34,2.0,6.0,92,0.00,,---,0.00,VWS V14.01,2013-03-16 05:15:00,
2013-03-16 01:20:00,28.6,26.6,29.85,ENE,61,1.0,5.0,92,0.00,,---,0.00,VWS V14.01,2013-03-16 05:20:00,
2013-03-16 01:25:00,28.6,26.8,29.85,NE,50,1.0,7.0,93,0.00,,---,0.00,VWS V14.01,2013-03-16 05:25:00,
2013-03-16 01:30:00,28.5,26.7,29.84,NE,37,2.0,7.0,93,0.00,,---,0.00,VWS V14.01,2013-03-16 05:30:00,
2013-03-16 01:35:00,28.4,26.6,29.84,NE,40,0.0,4.0,93,0.00,,---,0.00,VWS V14.01,2013-03-16 05:35:00,
2013-03-16 01:40:00,28.4,26.6,29.83,ENE,74,3.0,3.0,93,0.00,,---,0.00,VWS V14.01,2013-03-16 05:40:00,
2013-03-16 01:45:00,28.3,26.5,29.83,ENE,67,1.0,4.0,93,0.00,,---,0.00,VWS V14.01,2013-03-16 05:45:00,
2013-03-16 01:50:00,28.3,26.5,29.83,NE,40,2.0,4.0,93,0.00,,---,0.00,VWS V14.01,2013-03-16 05:50:00,
2013-03-16 01:55:00,28.3,26.8,29.82,ENE,61,4.0,5.0,94,0.00,,---,0.00,VWS V14.01,2013-03-16 05:55:00,
2013-03-16 02:00:00,28.3,26.8,29.82,NE,50,4.0,6.0,94,0.00,,---,0.00,VWS V14.01,2013-03-16 06:00:00,
2013-03-16 02:05:00,28.3,26.5,29.83,East,83,1.0,6.0,93,0.00,,---,0.00,VWS V14.01,2013-03-16 06:05:00,
2013-03-16 02:10:00,28.3,26.5,29.82,ENE,74,1.0,5.0,93,0.00,,---,0.00,VWS V14.01,2013-03-16 06:10:00,
2013-03-16 02:15:00,28.3,26.5,29.82,ENE,60,5.0,7.0,93,0.00,,---,0.00,VWS V14.01,2013-03-16 06:15:00,
2013-03-16 02:20:00,28.4,26.6,29.82,NNW,346,1.0,6.0,93,0.00,,---,0.00,VWS V14.01,2013-03-16 06:20:00,
2013-03-16 02:25:00,28.3,26.8,29.82,East,82,1.0,6.0,94,0.00,,---,0.00,VWS V14.01,2013-03-16 06:25:00,
2013-03-16 02:30:00,28.3,26.8,29.82,NNE,27,1.0,4.0,94,0.00,,---,0.00,VWS V14.01,2013-03-16 06:30:00,
2013-03-16 02:35:00,28.3,26.8,29.82,NE,47,1.0,2.0,94,0.00,,---,0.00,VWS V14.01,2013-03-16 06:35:00,
2013-03-16 02:40:00,28.3,26.8,29.82,ENE,63,3.0,4.0,94,0.00,,---,0.00,VWS V14.01,2013-03-16 06:40:00,
2013-03-16 02:45:00,28.3,26.8,29.82,ENE,58,6.0,6.0,94,0.00,,---,0.00,VWS V14.01,2013-03-16 06:45:00,
2013-03-16 02:50:00,28.3,26.8,29.82,NE,40,1.0,5.0,94,0.00,,---,0.00,VWS V14.01,2013-03-16 06:50:00,
2013-03-16 02:55:00,28.3,27.0,29.82,NE,40,4.0,5.0,95,0.00,,---,0.00,VWS V14.01,2013-03-16 06:55:00,
2013-03-16 03:00:00,28.4,27.1,29.81,NE,51,1.0,7.0,95,0.00,,---,0.00,VWS V14.01,2013-03-16 07:00:00,
2013-03-16 03:05:00,28.4,27.1,29.81,NE,56,2.0,7.0,95,0.00,,---,0.00,VWS V14.01,2013-03-16 07:05:00,
2013-03-16 03:10:00,28.5,27.2,29.81,NE,50,4.0,6.0,95,0.00,,---,0.00,VWS V14.01,2013-03-16 07:10:00,
2013-03-16 03:15:00,28.5,27.2,29.81,ENE,75,3.0,6.0,95,0.00,,---,0.00,VWS V14.01,2013-03-16 07:15:00,
2013-03-16 03:20:00,28.6,27.4,29.81,ENE,73,2.0,4.0,95,0.00,,---,0.00,VWS V14.01,2013-03-16 07:20:00,
2013-03-16 03:25:00,28.7,27.5,29.81,NNE,22,3.0,8.0,95,0.00,,---,0.00,VWS V14.01,2013-03-16 07:25:00,
2013-03-16 03:30:00,28.7,27.5,29.81,ENE,68,5.0,5.0,95,0.00,,---,0.00,VWS V14.01,2013-03-16 07:30:00,
2013-03-16 03:35:00,28.8,27.5,29.81,ENE,61,7.0,10.0,95,0.00,,---,0.00,VWS V14.01,2013-03-16 07:35:00,
2013-03-16 03:40:00,28.9,27.4,29.81,East,83,2.0,7.0,94,0.00,,---,0.00,VWS V14.01,2013-03-16 07:40:00,
2013-03-16 03:45:00,28.9,27.4,29.80,ENE,65,2.0,5.0,94,0.00,,---,0.00,VWS V14.01,2013-03-16 07:45:00,
2013-03-16 03:50:00,28.9,27.4,29.80,ESE,108,1.0,5.0,94,0.00,,---,0.00,VWS V14.01,2013-03-16 07:50:00,
2013-03-16 03:55:00,28.9,27.4,29.80,East,81,3.0,8.0,94,0.00,,---,0.00,VWS V14.01,2013-03-16 07:55:00,
2013-03-16 04:00:00,29.0,27.5,29.80,NE,54,2.0,7.0,94,0.00,,---,0.00,VWS V14.01,2013-03-16 08:00:00,
2013-03-16 04:05:00,29.0,27.5,29.79,ENE,68,4.0,8.0,94,0.00,,---,0.00,VWS V14.01,2013-03-16 08:05:00,
2013-03-16 04:10:00,29.0,27.2,29.79,ENE,68,7.0,7.0,93,0.00,,---,0.00,VWS V14.01,2013-03-16 08:10:00,
2013-03-16 04:15:00,29.0,27.2,29.79,East,81,7.0,10.0,93,0.00,,---,0.00,VWS V14.01,2013-03-16 08:15:00,
2013-03-16 04:20:00,28.9,27.1,29.78,East,89,4.0,8.0,93,0.00,,---,0.00,VWS V14.01,2013-03-16 08:20:00,
2013-03-16 04:25:00,28.8,27.0,29.78,SE,129,2.0,7.0,93,0.00,,---,0.00,VWS V14.01,2013-03-16 08:25:00,
2013-03-16 04:30:00,28.8,27.0,29.79,East,82,3.0,6.0,93,0.00,,---,0.00,VWS V14.01,2013-03-16 08:30:00,
2013-03-16 04:35:00,28.6,26.8,29.78,ENE,68,8.0,9.0,93,0.00,,---,0.00,VWS V14.01,2013-03-16 08:35:00,
2013-03-16 04:40:00,28.6,26.8,29.78,East,98,4.0,10.0,93,0.00,,---,0.00,VWS V14.01,2013-03-16 08:40:00,
2013-03-16 04:45:00,28.5,26.7,29.78,East,96,7.0,8.0,93,0.00,,---,0.00,VWS V14.01,2013-03-16 08:45:00,
2013-03-16 04:50:00,28.3,26.5,29.78,ENE,71,3.0,10.0,93,0.00,,---,0.00,VWS V14.01,2013-03-16 08:50:00,
2013-03-16 04:55:00,28.2,26.4,29.78,ENE,61,4.0,10.0,93,0.00,,---,0.00,VWS V14.01,2013-03-16 08:55:00,
2013-03-16 05:00:00,28.1,26.3,29.78,ESE,113,8.0,12.0,93,0.00,,---,0.00,VWS V14.01,2013-03-16 09:00:00,
2013-03-16 05:05:00,28.0,26.2,29.78,ENE,71,5.0,11.0,93,0.00,,---,0.00,VWS V14.01,2013-03-16 09:05:00,
2013-03-16 05:10:00,28.0,26.2,29.78,ESE,110,6.0,7.0,93,0.00,,---,0.00,VWS V14.01,2013-03-16 09:10:00,
2013-03-16 05:15:00,27.8,26.0,29.78,ENE,57,4.0,11.0,93,0.00,,---,0.00,VWS V14.01,2013-03-16 09:15:00,
2013-03-16 05:20:00,27.8,26.0,29.78,ENE,68,2.0,8.0,93,0.00,,---,0.00,VWS V14.01,2013-03-16 09:20:00,
2013-03-16 05:25:00,27.8,26.3,29.78,ENE,73,1.0,6.0,94,0.00,,---,0.00,VWS V14.01,2013-03-16 09:25:00,
2013-03-16 05:30:00,27.7,25.9,29.79,East,90,7.0,7.0,93,0.00,,---,0.00,VWS V14.01,2013-03-16 09:30:00,
2013-03-16 05:35:00,27.5,25.8,29.79,ENE,64,4.0,9.0,93,0.00,,---,0.00,VWS V14.01,2013-03-16 09:35:00,
2013-03-16 05:40:00,27.4,25.6,29.79,East,87,1.0,8.0,93,0.00,,---,0.00,VWS V14.01,2013-03-16 09:40:00,
2013-03-16 05:45:00,27.3,25.5,29.79,ENE,71,7.0,11.0,93,0.00,,---,0.00,VWS V14.01,2013-03-16 09:45:00,
2013-03-16 05:50:00,27.0,25.0,29.79,East,87,9.0,11.0,92,0.00,,---,0.00,VWS V14.01,2013-03-16 09:50:00,
2013-03-16 05:55:00,26.9,24.9,29.78,ENE,65,4.0,13.0,92,0.00,,---,0.00,VWS V14.01,2013-03-16 09:55:00,
2013-03-16 06:00:00,26.7,24.7,29.78,ENE,66,11.0,14.0,92,0.00,,---,0.00,VWS V14.01,2013-03-16 10:00:00,
2013-03-16 06:05:00,26.6,24.6,29.79,East,101,4.0,10.0,92,0.00,,---,0.00,VWS V14.01,2013-03-16 10:05:00,
2013-03-16 06:10:00,26.5,24.5,29.78,East,94,7.0,13.0,92,0.00,,---,0.00,VWS V14.01,2013-03-16 10:10:00,
2013-03-16 06:15:00,26.5,24.5,29.79,East,93,7.0,9.0,92,0.00,,---,0.00,VWS V14.01,2013-03-16 10:15:00,
2013-03-16 06:20:00,26.4,24.4,29.78,East,83,4.0,11.0,92,0.00,,---,0.00,VWS V14.01,2013-03-16 10:20:00,
2013-03-16 06:25:00,26.3,24.3,29.78,ENE,70,2.0,9.0,92,0.00,,---,0.00,VWS V14.01,2013-03-16 10:25:00,
2013-03-16 06:30:00,26.3,24.3,29.78,East,83,6.0,12.0,92,0.00,,---,0.00,VWS V14.01,2013-03-16 10:30:00,
2013-03-16 06:35:00,26.1,23.8,29.79,East,92,4.0,15.0,91,0.00,,---,0.00,VWS V14.01,2013-03-16 10:35:00,
2013-03-16 06:40:00,25.8,23.3,29.78,East,85,4.0,10.0,90,0.00,,---,0.00,VWS V14.01,2013-03-16 10:40:00,
2013-03-16 06:45:00,25.5,23.2,29.79,ENE,68,2.0,10.0,91,0.00,,---,0.00,VWS V14.01,2013-03-16 10:45:00,
2013-03-16 06:50:00,25.3,23.0,29.79,East,98,7.0,9.0,91,0.00,,---,0.00,VWS V14.01,2013-03-16 10:50:00,
2013-03-16 06:55:00,25.1,22.6,29.79,East,90,4.0,13.0,90,0.00,,---,0.00,VWS V14.01,2013-03-16 10:55:00,
2013-03-16 07:00:00,25.0,22.5,29.79,ENE,72,4.0,11.0,90,0.00,,---,0.00,VWS V14.01,2013-03-16 11:00:00,
2013-03-16 07:05:00,25.0,22.5,29.79,NE,50,5.0,10.0,90,0.00,,---,0.00,VWS V14.01,2013-03-16 11:05:00,
2013-03-16 07:10:00,25.0,22.8,29.79,NE,48,3.0,6.0,91,0.00,,---,0.00,VWS V14.01,2013-03-16 11:10:00,
2013-03-16 07:15:00,25.0,22.8,29.78,ESE,108,8.0,12.0,91,0.00,,---,0.00,VWS V14.01,2013-03-16 11:15:00,
2013-03-16 07:20:00,25.0,22.5,29.79,ENE,75,8.0,10.0,90,0.00,,---,0.00,VWS V14.01,2013-03-16 11:20:00,
2013-03-16 07:25:00,24.9,22.4,29.80,ESE,116,6.0,10.0,90,0.00,,---,0.00,VWS V14.01,2013-03-16 11:25:00,
2013-03-16 07:30:00,24.7,21.9,29.80,ENE,61,4.0,11.0,89,0.00,,---,0.00,VWS V14.01,2013-03-16 11:30:00,
2013-03-16 07:35:00,24.7,21.9,29.80,ENE,63,7.0,8.0,89,0.00,,---,0.00,VWS V14.01,2013-03-16 11:35:00,
2013-03-16 07:40:00,24.6,21.8,29.81,ENE,77,8.0,8.0,89,0.00,,---,0.00,VWS V14.01,2013-03-16 11:40:00,
2013-03-16 07:45:00,24.6,21.8,29.81,ENE,66,2.0,7.0,89,0.00,,---,0.00,VWS V14.01,2013-03-16 11:45:00,
2013-03-16 07:50:00,24.6,21.8,29.81,ENE,63,5.0,7.0,89,0.00,,---,0.00,VWS V14.01,2013-03-16 11:50:00,
2013-03-16 07:55:00,24.6,21.8,29.81,East,91,5.0,6.0,89,0.00,,---,0.00,VWS V14.01,2013-03-16 11:55:00,
2013-03-16 08:00:00,24.6,22.1,29.81,ENE,65,2.0,5.0,90,0.00,,---,0.00,VWS V14.01,2013-03-16 12:00:00,
2013-03-16 08:05:00,24.6,22.1,29.82,NNE,18,2.0,5.0,90,0.00,,---,0.00,VWS V14.01,2013-03-16 12:05:00,
2013-03-16 08:10:00,24.6,21.8,29.83,ENE,68,2.0,5.0,89,0.00,,---,0.00,VWS V14.01,2013-03-16 12:10:00,
2013-03-16 08:15:00,24.5,21.5,29.83,NNE,26,4.0,6.0,88,0.00,,---,0.00,VWS V14.01,2013-03-16 12:15:00,
2013-03-16 08:20:00,24.4,21.4,29.83,East,86,5.0,6.0,88,0.00,,---,0.00,VWS V14.01,2013-03-16 12:20:00,
2013-03-16 08:25:00,24.4,21.4,29.83,East,91,1.0,9.0,88,0.00,,---,0.00,VWS V14.01,2013-03-16 12:25:00,
2013-03-16 08:30:00,24.3,21.3,29.83,ENE,70,7.0,12.0,88,0.00,,---,0.00,VWS V14.01,2013-03-16 12:30:00,
2013-03-16 08:35:00,24.3,21.3,29.83,NE,42,5.0,9.0,88,0.00,,---,0.00,VWS V14.01,2013-03-16 12:35:00,
2013-03-16 08:40:00,24.2,21.2,29.83,NE,37,5.0,6.0,88,0.00,,---,0.00,VWS V14.01,2013-03-16 12:40:00,
2013-03-16 08:45:00,24.2,21.4,29.84,NE,44,3.0,8.0,89,0.00,,---,0.00,VWS V14.01,2013-03-16 12:45:00,
2013-03-16 08:50:00,24.2,21.4,29.84,ENE,58,2.0,11.0,89,0.00,,---,0.00,VWS V14.01,2013-03-16 12:50:00,
2013-03-16 08:55:00,24.2,21.7,29.84,NE,44,6.0,10.0,90,0.00,,---,0.00,VWS V14.01,2013-03-16 12:55:00,
2013-03-16 09:00:00,24.2,21.7,29.84,East,84,5.0,10.0,90,0.00,,---,0.00,VWS V14.01,2013-03-16 13:00:00,
2013-03-16 09:05:00,24.2,21.7,29.84,East,96,5.0,8.0,90,0.00,,---,0.00,VWS V14.01,2013-03-16 13:05:00,
2013-03-16 09:10:00,24.1,21.6,29.84,East,101,2.0,7.0,90,0.00,,---,0.00,VWS V14.01,2013-03-16 13:10:00,
2013-03-16 09:15:00,24.1,21.9,29.84,East,87,1.0,8.0,91,0.00,,---,0.00,VWS V14.01,2013-03-16 13:15:00,
2013-03-16 09:20:00,24.1,21.6,29.84,North,351,1.0,9.0,90,0.00,,---,0.00,VWS V14.01,2013-03-16 13:20:00,
2013-03-16 09:25:00,24.2,21.7,29.85,ENE,61,3.0,9.0,90,0.00,,---,0.00,VWS V14.01,2013-03-16 13:25:00,
2013-03-16 09:30:00,24.2,21.7,29.85,ENE,64,4.0,7.0,90,0.00,,---,0.00,VWS V14.01,2013-03-16 13:30:00,
2013-03-16 09:35:00,24.3,21.5,29.85,ESE,110,3.0,6.0,89,0.00,,---,0.00,VWS V14.01,2013-03-16 13:35:00,
2013-03-16 09:40:00,24.3,22.0,29.86,ENE,65,4.0,7.0,89,0.00,,,0.00,weatherlink.com 1.10,2013-03-16 13:40:00,
2013-03-16 09:45:00,24.4,21.6,29.85,ENE,68,1.0,6.0,89,0.00,,---,0.00,VWS V14.01,2013-03-16 13:45:00,
2013-03-16 09:50:00,24.5,21.7,29.86,North,9,2.0,9.0,89,0.00,,---,0.00,VWS V14.01,2013-03-16 13:50:00,
2013-03-16 09:55:00,24.5,21.7,29.86,NE,56,4.0,8.0,89,0.00,,---,0.00,VWS V14.01,2013-03-16 13:55:00,
2013-03-16 10:00:00,24.5,21.7,29.86,NNE,26,1.0,5.0,89,0.00,,---,0.00,VWS V14.01,2013-03-16 14:00:00,
2013-03-16 10:05:00,24.6,22.1,29.86,North,5,1.0,3.0,90,0.00,,---,0.00,VWS V14.01,2013-03-16 14:05:00,
2013-03-16 10:10:00,24.5,21.7,29.86,North,11,4.0,13.0,89,0.00,,---,0.00,VWS V14.01,2013-03-16 14:10:00,
2013-03-16 10:15:00,24.4,21.6,29.86,NE,36,2.0,7.0,89,0.00,,---,0.00,VWS V14.01,2013-03-16 14:15:00,
2013-03-16 10:20:00,24.4,21.6,29.85,NE,43,6.0,8.0,89,0.00,,---,0.00,VWS V14.01,2013-03-16 14:20:00,
2013-03-16 10:25:00,24.4,21.6,29.85,NNE,32,3.0,8.0,89,0.00,,---,0.00,VWS V14.01,2013-03-16 14:25:00,
2013-03-16 10:30:00,24.4,21.6,29.85,NNE,26,7.0,11.0,89,0.00,,---,0.00,VWS V14.01,2013-03-16 14:30:00,
2013-03-16 10:35:00,24.5,22.0,29.85,ENE,72,4.0,8.0,90,0.00,,---,0.00,VWS V14.01,2013-03-16 14:35:00,
2013-03-16 10:40:00,24.6,21.8,29.85,ENE,62,3.0,7.0,89,0.00,,---,0.00,VWS V14.01,2013-03-16 14:40:00,
2013-03-16 10:45:00,24.7,21.9,29.86,ENE,70,1.0,5.0,89,0.00,,---,0.00,VWS V14.01,2013-03-16 14:45:00,
2013-03-16 10:50:00,24.8,22.0,29.86,NE,36,2.0,6.0,89,0.00,,---,0.00,VWS V14.01,2013-03-16 14:50:00,
2013-03-16 10:55:00,24.9,21.9,29.86,North,11,7.0,8.0,88,0.00,,---,0.00,VWS V14.01,2013-03-16 14:55:00,
2013-03-16 11:00:00,25.0,22.0,29.86,ENE,58,2.0,6.0,88,0.00,,---,0.00,VWS V14.01,2013-03-16 15:00:00,
2013-03-16 11:05:00,25.1,21.8,29.86,NNE,16,3.0,6.0,87,0.00,,---,0.00,VWS V14.01,2013-03-16 15:05:00,
2013-03-16 11:10:00,25.4,22.1,29.86,NNE,32,4.0,8.0,87,0.00,,---,0.00,VWS V14.01,2013-03-16 15:10:00,
2013-03-16 11:15:00,25.5,21.9,29.86,NE,46,1.0,6.0,86,0.00,,---,0.00,VWS V14.01,2013-03-16 15:15:00,
2013-03-16 11:20:00,25.7,22.1,29.86,ENE,58,3.0,4.0,86,0.00,,---,0.00,VWS V14.01,2013-03-16 15:20:00,
2013-03-16 11:25:00,25.8,22.2,29.87,ENE,67,1.0,3.0,86,0.00,,---,0.00,VWS V14.01,2013-03-16 15:25:00,
2013-03-16 11:30:00,25.8,22.2,29.87,NE,47,6.0,6.0,86,0.00,,---,0.00,VWS V14.01,2013-03-16 15:30:00,
2013-03-16 11:35:00,25.8,22.2,29.87,North,11,0.0,2.0,86,0.00,,---,0.00,VWS V14.01,2013-03-16 15:35:00,
2013-03-16 11:40:00,25.8,21.9,29.87,North,11,6.0,9.0,85,0.00,,---,0.00,VWS V14.01,2013-03-16 15:40:00,
2013-03-16 11:45:00,25.8,22.2,29.87,NW,315,2.0,8.0,86,0.00,,---,0.00,VWS V14.01,2013-03-16 15:45:00,
2013-03-16 11:50:00,25.7,21.8,29.88,North,4,5.0,9.0,85,0.00,,---,0.00,VWS V14.01,2013-03-16 15:50:00,
2013-03-16 11:55:00,25.6,22.0,29.88,NE,41,2.0,9.0,86,0.00,,---,0.00,VWS V14.01,2013-03-16 15:55:00,
2013-03-16 12:00:00,25.7,22.1,29.88,North,354,1.0,5.0,86,0.00,,---,0.00,VWS V14.01,2013-03-16 16:00:00,
2013-03-16 12:05:00,25.8,22.2,29.88,NE,46,8.0,8.0,86,0.00,,---,0.00,VWS V14.01,2013-03-16 16:05:00,
2013-03-16 12:10:00,25.9,22.3,29.89,NNE,25,3.0,7.0,86,0.00,,---,0.00,VWS V14.01,2013-03-16 16:10:00,
2013-03-16 12:15:00,25.9,22.0,29.89,North,8,3.0,8.0,85,0.00,,---,0.00,VWS V14.01,2013-03-16 16:15:00,
2013-03-16 12:20:00,25.9,22.3,29.89,North,5,2.0,8.0,86,0.00,,---,0.00,VWS V14.01,2013-03-16 16:20:00,
2013-03-16 12:25:00,26.1,22.2,29.89,NE,48,1.0,6.0,85,0.00,,---,0.00,VWS V14.01,2013-03-16 16:25:00,
2013-03-16 12:30:00,26.3,22.4,29.90,NNE,22,4.0,7.0,85,0.00,,---,0.00,VWS V14.01,2013-03-16 16:30:00,
2013-03-16 12:35:00,26.4,22.2,29.90,North,350,2.0,7.0,84,0.00,,---,0.00,VWS V14.01,2013-03-16 16:35:00,
2013-03-16 12:40:00,26.5,22.3,29.91,NNE,16,8.0,9.0,84,0.00,,---,0.00,VWS V14.01,2013-03-16 16:40:00,
2013-03-16 12:45:00,26.8,22.3,29.91,ENE,68,4.0,6.0,83,0.00,,---,0.00,VWS V14.01,2013-03-16 16:45:00,
2013-03-16 12:50:00,27.0,22.5,29.91,NNE,21,8.0,8.0,83,0.00,,---,0.00,VWS V14.01,2013-03-16 16:50:00,
2013-03-16 12:55:00,27.3,22.8,29.91,NNE,32,1.0,4.0,83,0.00,,---,0.00,VWS V14.01,2013-03-16 16:55:00,
2013-03-16 13:00:00,27.4,22.6,29.91,ENE,71,3.0,8.0,82,0.00,,---,0.00,VWS V14.01,2013-03-16 17:00:00,
2013-03-16 13:05:00,27.5,22.7,29.92,North,4,2.0,7.0,82,0.00,,---,0.00,VWS V14.01,2013-03-16 17:05:00,
2013-03-16 13:10:00,27.6,22.8,29.92,North,11,2.0,8.0,82,0.00,,---,0.00,VWS V14.01,2013-03-16 17:10:00,
2013-03-16 13:15:00,27.8,23.0,29.92,NE,46,3.0,9.0,82,0.00,,---,0.00,VWS V14.01,2013-03-16 17:15:00,
2013-03-16 13:20:00,28.1,23.3,29.93,East,84,3.0,7.0,82,0.00,,---,0.00,VWS V14.01,2013-03-16 17:20:00,
2013-03-16 13:25:00,28.2,23.1,29.93,NNW,348,2.0,4.0,81,0.00,,---,0.00,VWS V14.01,2013-03-16 17:25:00,
2013-03-16 13:30:00,28.3,22.9,29.93,North,360,1.0,6.0,80,0.00,,---,0.00,VWS V14.01,2013-03-16 17:30:00,
2013-03-16 13:35:00,28.7,23.3,29.93,NE,53,2.0,6.0,80,0.00,,---,0.00,VWS V14.01,2013-03-16 17:35:00,
2013-03-16 13:40:00,29.2,23.8,29.93,NW,314,0.0,5.0,80,0.00,,---,0.00,VWS V14.01,2013-03-16 17:40:00,
2013-03-16 13:45:00,29.5,23.8,29.93,East,84,3.0,3.0,79,0.00,,---,0.00,VWS V14.01,2013-03-16 17:45:00,
2013-03-16 13:50:00,29.7,23.7,29.93,NNW,340,2.0,6.0,78,0.00,,---,0.00,VWS V14.01,2013-03-16 17:50:00,
2013-03-16 13:55:00,29.8,23.8,29.94,East,79,1.0,7.0,78,0.00,,---,0.00,VWS V14.01,2013-03-16 17:55:00,
2013-03-16 14:00:00,30.3,24.3,29.94,NW,323,2.0,4.0,78,0.00,,---,0.00,VWS V14.01,2013-03-16 18:00:00,
2013-03-16 14:05:00,30.6,24.3,29.94,NE,48,5.0,5.0,77,0.00,,---,0.00,VWS V14.01,2013-03-16 18:05:00,
2013-03-16 14:10:00,30.5,23.9,29.94,NNW,328,2.0,4.0,76,0.00,,---,0.00,VWS V14.01,2013-03-16 18:10:00,
2013-03-16 14:15:00,30.8,24.1,29.94,NNE,23,2.0,5.0,76,0.00,,---,0.00,VWS V14.01,2013-03-16 18:15:00,
2013-03-16 14:20:00,31.0,24.3,29.94,North,349,1.0,6.0,76,0.00,,---,0.00,VWS V14.01,2013-03-16 18:20:00,
2013-03-16 14:25:00,31.1,24.1,29.94,NNW,337,1.0,6.0,75,0.00,,---,0.00,VWS V14.01,2013-03-16 18:25:00,
2013-03-16 14:30:00,31.4,24.1,29.94,NNW,342,1.0,2.0,74,0.00,,---,0.00,VWS V14.01,2013-03-16 18:30:00,
2013-03-16 14:35:00,31.6,24.3,29.94,ENE,73,3.0,6.0,74,0.00,,---,0.00,VWS V14.01,2013-03-16 18:35:00,
2013-03-16 14:39:00,31.5,24.2,29.94,NNW,346,5.0,5.0,74,0.00,,---,0.00,VWS V14.01,2013-03-16 18:39:00,
2013-03-16 14:40:00,31.5,23.9,29.94,East,91,1.0,4.0,73,0.00,,---,0.00,VWS V14.01,2013-03-16 18:40:00,
2013-03-16 14:44:00,31.6,24.3,29.93,NNE,23,2.0,4.0,74,0.00,,---,0.00,VWS V14.01,2013-03-16 18:44:00,
2013-03-16 14:45:00,31.5,23.9,29.94,East,79,0.0,7.0,73,0.00,,---,0.00,VWS V14.01,2013-03-16 18:45:00,
2013-03-16 14:49:00,31.5,23.9,29.94,NNE,25,4.0,7.0,73,0.00,,---,0.00,VWS V14.01,2013-03-16 18:49:00,
2013-03-16 14:50:00,31.6,24.0,29.94,NE,44,0.0,2.0,73,0.00,,---,0.00,VWS V14.01,2013-03-16 18:50:00,
2013-03-16 14:54:00,31.6,24.3,29.94,ENE,71,1.0,2.0,74,0.00,,---,0.00,VWS V14.01,2013-03-16 18:54:00,
2013-03-16 14:55:00,32.0,24.7,29.93,NNE,33,0.0,2.0,74,0.00,,---,0.00,VWS V14.01,2013-03-16 18:55:00,
2013-03-16 14:59:00,31.8,24.5,29.94,ENE,74,0.0,1.0,74,0.00,,---,0.00,VWS V14.01,2013-03-16 18:59:00,
2013-03-16 15:00:00,31.9,23.9,29.93,WNW,290,2.0,6.0,72,0.00,,---,0.00,VWS V14.01,2013-03-16 19:00:00,
2013-03-16 15:04:00,32.0,24.3,29.93,NNE,32,2.0,6.0,73,0.00,,---,0.00,VWS V14.01,2013-03-16 19:04:00,
2013-03-16 15:05:00,32.0,24.3,29.93,ENE,61,0.0,3.0,73,0.00,,---,0.00,VWS V14.01,2013-03-16 19:05:00,
2013-03-16 15:09:00,31.8,24.1,29.93,NNW,328,1.0,3.0,73,0.00,,---,0.00,VWS V14.01,2013-03-16 19:09:00,
2013-03-16 15:10:00,32.2,24.2,29.93,North,354,2.0,8.0,72,0.00,,---,0.00,VWS V14.01,2013-03-16 19:10:00,
2013-03-16 15:14:00,32.1,24.4,29.93,NE,46,2.0,3.0,73,0.00,,---,0.00,VWS V14.01,2013-03-16 19:14:00,
2013-03-16 15:15:00,32.1,24.1,29.93,North,358,3.0,5.0,72,0.00,,---,0.00,VWS V14.01,2013-03-16 19:15:00,
2013-03-16 15:19:00,32.1,24.1,29.93,North,356,1.0,5.0,72,0.00,,---,0.00,VWS V14.01,2013-03-16 19:19:00,
2013-03-16 15:20:00,32.2,24.2,29.93,NE,36,1.0,5.0,72,0.00,,---,0.00,VWS V14.01,2013-03-16 19:20:00,
2013-03-16 15:24:00,32.1,24.1,29.93,ENE,65,1.0,3.0,72,0.00,,---,0.00,VWS V14.01,2013-03-16 19:24:00,
2013-03-16 15:25:00,32.5,24.2,29.93,SW,229,3.0,7.0,71,0.00,,---,0.00,VWS V14.01,2013-03-16 19:25:00,
2013-03-16 15:29:00,32.3,24.3,29.93,NNW,335,3.0,6.0,72,0.00,,---,0.00,VWS V14.01,2013-03-16 19:29:00,
2013-03-16 15:30:00,32.6,23.6,29.93,NW,325,2.0,7.0,69,0.00,,---,0.00,VWS V14.01,2013-03-16 19:30:00,
2013-03-16 15:34:00,32.6,23.6,29.93,NE,49,5.0,7.0,69,0.00,,---,0.00,VWS V14.01,2013-03-16 19:34:00,
2013-03-16 15:35:00,33.0,23.2,29.93,North,6,1.0,8.0,67,0.00,,---,0.00,VWS V14.01,2013-03-16 19:35:00,
2013-03-16 15:39:00,32.7,23.3,29.93,North,354,0.0,5.0,68,0.00,,---,0.00,VWS V14.01,2013-03-16 19:39:00,
2013-03-16 15:40:00,33.1,23.0,29.93,NNW,345,4.0,8.0,66,0.00,,---,0.00,VWS V14.01,2013-03-16 19:40:00,
2013-03-16 15:44:00,33.1,23.4,29.93,NNW,344,5.0,8.0,67,0.00,,---,0.00,VWS V14.01,2013-03-16 19:44:00,
2013-03-16 15:45:00,33.1,23.4,29.93,North,351,1.0,8.0,67,0.00,,---,0.00,VWS V14.01,2013-03-16 19:45:00,
2013-03-16 15:49:00,33.1,23.0,29.93,NW,323,7.0,8.0,66,0.00,,---,0.00,VWS V14.01,2013-03-16 19:49:00,
2013-03-16 15:50:00,33.2,23.5,29.92,North,358,6.0,6.0,67,0.00,,---,0.00,VWS V14.01,2013-03-16 19:50:00,
2013-03-16 15:54:00,33.1,23.4,29.93,NE,51,2.0,5.0,67,0.00,,---,0.00,VWS V14.01,2013-03-16 19:54:00,
2013-03-16 15:55:00,33.2,23.5,29.92,NW,305,0.0,6.0,67,0.00,,---,0.00,VWS V14.01,2013-03-16 19:55:00,
2013-03-16 15:59:00,33.2,23.5,29.92,North,354,2.0,6.0,67,0.00,,---,0.00,VWS V14.01,2013-03-16 19:59:00,
2013-03-16 16:00:00,33.2,23.1,29.92,NE,34,6.0,7.0,66,0.00,,---,0.00,VWS V14.01,2013-03-16 20:00:00,
2013-03-16 16:04:00,33.3,23.5,29.92,NNW,343,1.0,6.0,67,0.00,,---,0.00,VWS V14.01,2013-03-16 20:04:00,
2013-03-16 16:05:00,33.1,23.0,29.93,NNW,328,3.0,6.0,66,0.00,,---,0.00,VWS V14.01,2013-03-16 20:05:00,
2013-03-16 16:09:00,33.1,23.0,29.93,North,9,2.0,6.0,66,0.00,,---,0.00,VWS V14.01,2013-03-16 20:09:00,
2013-03-16 16:10:00,32.9,22.8,29.93,NNE,32,6.0,6.0,66,0.00,,---,0.00,VWS V14.01,2013-03-16 20:10:00,
2013-03-16 16:14:00,33.0,22.5,29.93,NNE,33,2.0,5.0,65,0.00,,---,0.00,VWS V14.01,2013-03-16 20:14:00,
2013-03-16 16:15:00,33.0,23.2,29.93,NNE,25,3.0,6.0,67,0.00,,---,0.00,VWS V14.01,2013-03-16 20:15:00,
2013-03-16 16:19:00,32.9,22.8,29.93,ENE,58,2.0,6.0,66,0.00,,---,0.00,VWS V14.01,2013-03-16 20:19:00,
2013-03-16 16:20:00,33.2,22.7,29.93,ENE,68,1.0,4.0,65,0.00,,---,0.00,VWS V14.01,2013-03-16 20:20:00,
2013-03-16 16:24:00,33.1,23.0,29.92,WSW,251,0.0,4.0,66,0.00,,---,0.00,VWS V14.01,2013-03-16 20:24:00,
2013-03-16 16:25:00,33.3,22.8,29.93,NW,321,0.0,2.0,65,0.00,,---,0.00,VWS V14.01,2013-03-16 20:25:00,
2013-03-16 16:29:00,33.3,22.8,29.93,NE,34,0.0,2.0,65,0.00,,---,0.00,VWS V14.01,2013-03-16 20:29:00,
2013-03-16 16:30:00,33.6,23.1,29.93,WNW,300,3.0,3.0,65,0.00,,---,0.00,VWS V14.01,2013-03-16 20:30:00,
2013-03-16 16:34:00,33.4,23.3,29.93,NNW,341,1.0,3.0,66,0.00,,---,0.00,VWS V14.01,2013-03-16 20:34:00,
2013-03-16 16:35:00,33.6,22.7,29.93,ENE,67,1.0,5.0,64,0.00,,---,0.00,VWS V14.01,2013-03-16 20:35:00,
2013-03-16 16:39:00,33.6,22.7,29.93,NW,310,2.0,5.0,64,0.00,,---,0.00,VWS V14.01,2013-03-16 20:39:00,
2013-03-16 16:40:00,33.5,22.6,29.93,SSW,213,0.0,2.0,64,0.00,,---,0.00,VWS V14.01,2013-03-16 20:40:00,
2013-03-16 16:44:00,33.6,22.4,29.93,NW,307,2.0,2.0,63,0.00,,---,0.00,VWS V14.01,2013-03-16 20:44:00,
2013-03-16 16:45:00,33.7,23.2,29.93,WNW,303,1.0,3.0,65,0.00,,---,0.00,VWS V14.01,2013-03-16 20:45:00,
2013-03-16 16:49:00,33.7,23.2,29.93,NW,323,1.0,3.0,65,0.00,,---,0.00,VWS V14.01,2013-03-16 20:49:00,
2013-03-16 16:50:00,33.8,22.9,29.93,NNE,13,0.0,4.0,64,0.00,,---,0.00,VWS V14.01,2013-03-16 20:50:00,
2013-03-16 16:54:00,33.8,23.3,29.93,NNW,340,2.0,2.0,65,0.00,,---,0.00,VWS V14.01,2013-03-16 20:54:00,
2013-03-16 16:55:00,33.9,23.0,29.93,WNW,300,2.0,4.0,64,0.00,,---,0.00,VWS V14.01,2013-03-16 20:55:00,
2013-03-16 16:59:00,33.9,23.4,29.93,WNW,303,2.0,2.0,65,0.00,,---,0.00,VWS V14.01,2013-03-16 20:59:00,
2013-03-16 17:00:00,34.0,23.5,29.93,NW,315,2.0,3.0,65,0.00,,---,0.00,VWS V14.01,2013-03-16 21:00:00,
2013-03-16 17:04:00,33.9,23.0,29.93,NW,313,1.0,3.0,64,0.00,,---,0.00,VWS V14.01,2013-03-16 21:04:00,
2013-03-16 17:05:00,34.1,22.8,29.94,NNE,32,0.0,3.0,63,0.00,,---,0.00,VWS V14.01,2013-03-16 21:05:00,
2013-03-16 17:09:00,34.1,23.2,29.93,WNW,290,0.0,3.0,64,0.00,,---,0.00,VWS V14.01,2013-03-16 21:09:00,
2013-03-16 17:10:00,34.0,22.7,29.94,North,360,2.0,6.0,63,0.00,,---,0.00,VWS V14.01,2013-03-16 21:10:00,
2013-03-16 17:14:00,34.0,22.7,29.94,NNE,15,0.0,2.0,63,0.00,,---,0.00,VWS V14.01,2013-03-16 21:14:00,
2013-03-16 17:15:00,33.9,23.0,29.94,NNW,328,1.0,3.0,64,0.00,,---,0.00,VWS V14.01,2013-03-16 21:15:00,
2013-03-16 17:19:00,33.9,22.6,29.94,WNW,284,0.0,3.0,63,0.00,,---,0.00,VWS V14.01,2013-03-16 21:19:00,
2013-03-16 17:20:00,33.9,23.0,29.94,WNW,303,2.0,4.0,64,0.00,,---,0.00,VWS V14.01,2013-03-16 21:20:00,
2013-03-16 17:24:00,33.9,23.0,29.94,NW,323,2.0,4.0,64,0.00,,---,0.00,VWS V14.01,2013-03-16 21:24:00,
2013-03-16 17:25:00,33.8,23.3,29.94,SW,229,2.0,5.0,65,0.00,,---,0.00,VWS V14.01,2013-03-16 21:25:00,
2013-03-16 17:29:00,33.9,23.4,29.94,SSW,207,3.0,5.0,65,0.00,,---,0.00,VWS V14.01,2013-03-16 21:29:00,
2013-03-16 17:30:00,33.7,23.6,29.94,SW,233,0.0,4.0,66,0.00,,---,0.00,VWS V14.01,2013-03-16 21:30:00,
2013-03-16 17:34:00,33.7,23.6,29.95,SSW,207,1.0,4.0,66,0.00,,---,0.00,VWS V14.01,2013-03-16 21:34:00,
2013-03-16 17:35:00,33.6,23.5,29.95,SW,225,1.0,5.0,66,0.00,,---,0.00,VWS V14.01,2013-03-16 21:35:00,
2013-03-16 17:39:00,33.7,23.6,29.94,WSW,245,2.0,5.0,66,0.00,,---,0.00,VWS V14.01,2013-03-16 21:39:00,
2013-03-16 17:40:00,33.6,23.8,29.94,West,264,0.0,2.0,67,0.00,,---,0.00,VWS V14.01,2013-03-16 21:40:00,
2013-03-16 17:44:00,33.6,23.5,29.95,SW,235,1.0,2.0,66,0.00,,---,0.00,VWS V14.01,2013-03-16 21:44:00,
2013-03-16 17:45:00,33.8,24.0,29.95,SW,229,0.0,2.0,67,0.00,,---,0.00,VWS V14.01,2013-03-16 21:45:00,
2013-03-16 17:49:00,33.7,23.9,29.95,SW,233,1.0,2.0,67,0.00,,---,0.00,VWS V14.01,2013-03-16 21:49:00,
2013-03-16 17:50:00,33.9,23.8,29.95,SW,229,1.0,4.0,66,0.00,,---,0.00,VWS V14.01,2013-03-16 21:50:00,
2013-03-16 17:54:00,33.9,24.1,29.94,SW,229,0.0,0.0,67,0.00,,---,0.00,VWS V14.01,2013-03-16 21:54:00,
2013-03-16 17:55:00,33.9,24.1,29.95,WSW,250,1.0,1.0,67,0.00,,---,0.00,VWS V14.01,2013-03-16 21:55:00,
2013-03-16 17:59:00,33.9,23.8,29.95,SW,224,0.0,1.0,66,0.00,,---,0.00,VWS V14.01,2013-03-16 21:59:00,
2013-03-16 18:00:00,33.9,23.4,29.95,SSW,208,0.0,3.0,65,0.00,,---,0.00,VWS V14.01,2013-03-16 22:00:00,
2013-03-16 18:04:00,33.9,24.1,29.95,SW,217,1.0,1.0,67,0.00,,---,0.00,VWS V14.01,2013-03-16 22:04:00,
2013-03-16 18:05:00,33.8,23.3,29.95,SW,219,0.0,1.0,65,0.00,,---,0.00,VWS V14.01,2013-03-16 22:05:00,
2013-03-16 18:09:00,33.8,23.3,29.95,SSW,210,0.0,0.0,65,0.00,,---,0.00,VWS V14.01,2013-03-16 22:09:00,
2013-03-16 18:10:00,33.9,23.8,29.95,SW,215,0.0,1.0,66,0.00,,---,0.00,VWS V14.01,2013-03-16 22:10:00,
2013-03-16 18:14:00,33.8,23.3,29.95,NE,34,0.0,1.0,65,0.00,,---,0.00,VWS V14.01,2013-03-16 22:14:00,
2013-03-16 18:15:00,33.9,23.4,29.95,WSW,238,1.0,1.0,65,0.00,,---,0.00,VWS V14.01,2013-03-16 22:15:00,
2013-03-16 18:19:00,33.9,23.4,29.95,West,276,0.0,1.0,65,0.00,,---,0.00,VWS V14.01,2013-03-16 22:19:00,
2013-03-16 18:20:00,33.7,23.2,29.95,SW,214,0.0,3.0,65,0.00,,---,0.00,VWS V14.01,2013-03-16 22:20:00,
2013-03-16 18:24:00,33.8,23.3,29.95,SW,219,1.0,3.0,65,0.00,,---,0.00,VWS V14.01,2013-03-16 22:24:00,
2013-03-16 18:25:00,33.7,23.2,29.95,SW,214,0.0,1.0,65,0.00,,---,0.00,VWS V14.01,2013-03-16 22:25:00,
2013-03-16 18:29:00,33.7,23.6,29.95,SW,214,0.0,1.0,66,0.00,,---,0.00,VWS V14.01,2013-03-16 22:29:00,
2013-03-16 18:30:00,33.7,23.6,29.95,SW,225,2.0,2.0,66,0.00,,---,0.00,VWS V14.01,2013-03-16 22:30:00,
2013-03-16 18:34:00,33.7,23.2,29.95,SW,214,0.0,0.0,65,0.00,,---,0.00,VWS V14.01,2013-03-16 22:34:00,
2013-03-16 18:35:00,33.7,23.2,29.95,SW,221,0.0,2.0,65,0.00,,---,0.00,VWS V14.01,2013-03-16 22:35:00,
2013-03-16 18:39:00,33.7,23.2,29.95,SW,221,0.0,2.0,65,0.00,,---,0.00,VWS V14.01,2013-03-16 22:39:00,
2013-03-16 18:40:00,33.9,24.1,29.95,SW,228,0.0,2.0,67,0.00,,---,0.00,VWS V14.01,2013-03-16 22:40:00,
2013-03-16 18:44:00,33.7,23.6,29.95,SW,226,0.0,2.0,66,0.00,,---,0.00,VWS V14.01,2013-03-16 22:44:00,
2013-03-16 18:45:00,34.0,23.5,29.96,SW,229,0.0,3.0,65,0.00,,---,0.00,VWS V14.01,2013-03-16 22:45:00,
2013-03-16 18:49:00,34.0,23.9,29.95,SW,222,3.0,3.0,66,0.00,,---,0.00,VWS V14.01,2013-03-16 22:49:00,
2013-03-16 18:50:00,33.9,23.4,29.95,SW,217,0.0,3.0,65,0.00,,---,0.00,VWS V14.01,2013-03-16 22:50:00,
2013-03-16 18:54:00,33.9,23.4,29.96,SW,225,2.0,3.0,65,0.00,,---,0.00,VWS V14.01,2013-03-16 22:54:00,
2013-03-16 18:55:00,33.8,24.0,29.95,SSW,210,0.0,1.0,67,0.00,,---,0.00,VWS V14.01,2013-03-16 22:55:00,
2013-03-16 18:59:00,33.8,24.0,29.95,SW,217,0.0,0.0,67,0.00,,---,0.00,VWS V14.01,2013-03-16 22:59:00,
2013-03-16 19:00:00,33.7,24.3,29.95,SW,222,0.0,3.0,68,0.00,,---,0.00,VWS V14.01,2013-03-16 23:00:00,
2013-03-16 19:04:00,33.8,23.7,29.95,SW,222,1.0,3.0,66,0.00,,---,0.00,VWS V14.01,2013-03-16 23:04:00,
2013-03-16 19:05:00,33.7,23.9,29.95,SW,222,0.0,0.0,67,0.00,,---,0.00,VWS V14.01,2013-03-16 23:05:00,
2013-03-16 19:09:00,33.7,24.3,29.95,SW,222,0.0,0.0,68,0.00,,---,0.00,VWS V14.01,2013-03-16 23:09:00,
2013-03-16 19:10:00,33.7,24.3,29.95,WSW,239,1.0,3.0,68,0.00,,---,0.00,VWS V14.01,2013-03-16 23:10:00,
2013-03-16 19:14:00,33.7,23.9,29.95,SW,224,0.0,1.0,67,0.00,,---,0.00,VWS V14.01,2013-03-16 23:14:00,
2013-03-16 19:15:00,33.6,24.2,29.95,West,269,0.0,2.0,68,0.00,,---,0.00,VWS V14.01,2013-03-16 23:15:00,
2013-03-16 19:19:00,33.6,24.2,29.95,SW,217,0.0,2.0,68,0.00,,---,0.00,VWS V14.01,2013-03-16 23:19:00,
2013-03-16 19:20:00,33.5,24.1,29.95,SW,226,0.0,1.0,68,0.00,,---,0.00,VWS V14.01,2013-03-16 23:20:00,
2013-03-16 19:24:00,33.5,24.1,29.95,SW,226,0.0,1.0,68,0.00,,---,0.00,VWS V14.01,2013-03-16 23:24:00,
2013-03-16 19:25:00,33.5,24.1,29.95,SSW,203,2.0,4.0,68,0.00,,---,0.00,VWS V14.01,2013-03-16 23:25:00,
2013-03-16 19:29:00,33.5,24.1,29.95,SW,226,0.0,0.0,68,0.00,,---,0.00,VWS V14.01,2013-03-16 23:29:00,
2013-03-16 19:30:00,33.4,23.3,29.96,SW,214,0.0,5.0,66,0.00,,---,0.00,VWS V14.01,2013-03-16 23:30:00,
2013-03-16 19:34:00,33.4,23.3,29.96,WSW,250,0.0,5.0,66,0.00,,---,0.00,VWS V14.01,2013-03-16 23:34:00,
2013-03-16 19:35:00,33.2,23.1,29.96,WSW,239,1.0,5.0,66,0.00,,---,0.00,VWS V14.01,2013-03-16 23:35:00,
2013-03-16 19:39:00,33.3,22.8,29.96,SSW,203,2.0,5.0,65,0.00,,---,0.00,VWS V14.01,2013-03-16 23:39:00,
2013-03-16 19:40:00,33.0,22.9,29.96,WSW,239,0.0,3.0,66,0.00,,---,0.00,VWS V14.01,2013-03-16 23:40:00,
2013-03-16 19:44:00,33.1,23.0,29.96,SW,218,0.0,3.0,66,0.00,,---,0.00,VWS V14.01,2013-03-16 23:44:00,
2013-03-16 19:45:00,32.7,22.6,29.96,West,274,0.0,3.0,66,0.00,,---,0.00,VWS V14.01,2013-03-16 23:45:00,
2013-03-16 19:49:00,32.8,22.7,29.96,SSW,208,1.0,3.0,66,0.00,,---,0.00,VWS V14.01,2013-03-16 23:49:00,
2013-03-16 19:50:00,32.3,22.2,29.96,SW,231,1.0,4.0,66,0.00,,---,0.00,VWS V14.01,2013-03-16 23:50:00,
2013-03-16 19:54:00,32.5,22.8,29.96,SW,229,0.0,2.0,67,0.00,,---,0.00,VWS V14.01,2013-03-16 23:54:00,
2013-03-16 19:55:00,31.9,22.2,29.97,WSW,243,0.0,3.0,67,0.00,,---,0.00,VWS V14.01,2013-03-16 23:55:00,
2013-03-16 19:59:00,32.1,22.0,29.96,SW,225,0.0,3.0,66,0.00,,---,0.00,VWS V14.01,2013-03-16 23:59:00,
2013-03-16 20:00:00,31.6,21.9,29.97,WSW,250,0.0,3.0,67,0.00,,---,0.00,VWS V14.01,2013-03-17 00:00:00,
2013-03-16 20:04:00,31.7,22.0,29.97,WSW,238,1.0,3.0,67,0.00,,---,0.00,VWS V14.01,2013-03-17 00:04:00,
2013-03-16 20:05:00,31.3,21.6,29.97,SW,226,0.0,3.0,67,0.00,,---,0.00,VWS V14.01,2013-03-17 00:05:00,
2013-03-16 20:09:00,31.4,22.1,29.97,WNW,302,1.0,2.0,68,0.00,,---,0.00,VWS V14.01,2013-03-17 00:09:00,
2013-03-16 20:10:00,31.0,21.7,29.97,West,262,0.0,2.0,68,0.00,,---,0.00,VWS V14.01,2013-03-17 00:10:00,
2013-03-16 20:14:00,31.1,21.8,29.97,NW,308,0.0,1.0,68,0.00,,---,0.00,VWS V14.01,2013-03-17 00:14:00,
2013-03-16 20:15:00,30.8,21.5,29.97,West,277,0.0,3.0,68,0.00,,---,0.00,VWS V14.01,2013-03-17 00:15:00,
2013-03-16 20:19:00,30.9,21.6,29.97,WSW,253,0.0,2.0,68,0.00,,---,0.00,VWS V14.01,2013-03-17 00:19:00,
2013-03-16 20:20:00,30.6,21.3,29.98,West,277,1.0,5.0,68,0.00,,---,0.00,VWS V14.01,2013-03-17 00:20:00,
2013-03-16 20:24:00,30.7,21.4,29.97,West,278,1.0,5.0,68,0.00,,---,0.00,VWS V14.01,2013-03-17 00:24:00,
2013-03-16 20:25:00,30.5,21.2,29.98,WSW,242,1.0,4.0,68,0.00,,---,0.00,VWS V14.01,2013-03-17 00:25:00,
2013-03-16 20:29:00,30.6,21.3,29.98,West,260,0.0,1.0,68,0.00,,---,0.00,VWS V14.01,2013-03-17 00:29:00,
2013-03-16 20:30:00,30.3,21.0,29.98,SW,233,0.0,2.0,68,0.00,,---,0.00,VWS V14.01,2013-03-17 00:30:00,
2013-03-16 20:34:00,30.5,21.2,29.98,SW,232,0.0,2.0,68,0.00,,---,0.00,VWS V14.01,2013-03-17 00:34:00,
2013-03-16 20:35:00,30.0,21.1,29.98,West,276,0.0,3.0,69,0.00,,---,0.00,VWS V14.01,2013-03-17 00:35:00,
2013-03-16 20:39:00,30.1,21.2,29.98,WSW,239,1.0,3.0,69,0.00,,---,0.00,VWS V14.01,2013-03-17 00:39:00,
2013-03-16 20:40:00,29.9,21.0,29.98,WSW,257,0.0,2.0,69,0.00,,---,0.00,VWS V14.01,2013-03-17 00:40:00,
2013-03-16 20:44:00,30.0,20.7,29.98,WNW,283,1.0,2.0,68,0.00,,---,0.00,VWS V14.01,2013-03-17 00:44:00,
2013-03-16 20:45:00,29.7,20.8,29.98,WNW,300,0.0,2.0,69,0.00,,---,0.00,VWS V14.01,2013-03-17 00:45:00,
2013-03-16 20:49:00,29.8,20.9,29.98,SSW,205,0.0,0.0,69,0.00,,---,0.00,VWS V14.01,2013-03-17 00:49:00,
2013-03-16 20:50:00,29.6,20.4,29.98,West,266,0.0,6.0,68,0.00,,---,0.00,VWS V14.01,2013-03-17 00:50:00,
2013-03-16 20:54:00,29.6,20.7,29.98,NNW,333,4.0,4.0,69,0.00,,---,0.00,VWS V14.01,2013-03-17 00:54:00,
2013-03-16 20:55:00,29.5,20.3,29.99,WNW,285,0.0,4.0,68,0.00,,---,0.00,VWS V14.01,2013-03-17 00:55:00,
2013-03-16 20:59:00,29.6,20.7,29.99,NNW,328,0.0,2.0,69,0.00,,---,0.00,VWS V14.01,2013-03-17 00:59:00,
2013-03-16 21:00:00,29.4,20.5,29.99,WSW,238,0.0,5.0,69,0.00,,---,0.00,VWS V14.01,2013-03-17 01:00:00,
2013-03-16 21:04:00,29.4,20.2,29.99,WNW,287,1.0,2.0,68,0.00,,---,0.00,VWS V14.01,2013-03-17 01:04:00,
2013-03-16 21:05:00,29.4,20.2,29.99,WSW,248,2.0,3.0,68,0.00,,---,0.00,VWS V14.01,2013-03-17 01:05:00,
2013-03-16 21:09:00,29.4,20.2,29.99,WNW,290,3.0,3.0,68,0.00,,---,0.00,VWS V14.01,2013-03-17 01:09:00,
2013-03-16 21:10:00,29.3,20.1,29.99,WSW,253,1.0,3.0,68,0.00,,---,0.00,VWS V14.01,2013-03-17 01:10:00,
2013-03-16 21:14:00,29.4,20.2,29.99,WSW,250,0.0,3.0,68,0.00,,---,0.00,VWS V14.01,2013-03-17 01:14:00,
2013-03-16 21:15:00,29.2,20.0,29.99,SW,228,0.0,2.0,68,0.00,,---,0.00,VWS V14.01,2013-03-17 01:15:00,
2013-03-16 21:19:00,29.3,20.4,29.99,SW,232,0.0,2.0,69,0.00,,---,0.00,VWS V14.01,2013-03-17 01:19:00,
2013-03-16 21:20:00,29.0,19.8,30.00,SW,225,0.0,4.0,68,0.00,,---,0.00,VWS V14.01,2013-03-17 01:20:00,
2013-03-16 21:24:00,29.1,19.9,29.99,WNW,290,2.0,4.0,68,0.00,,---,0.00,VWS V14.01,2013-03-17 01:24:00,
2013-03-16 21:25:00,28.8,19.9,30.00,WSW,246,2.0,5.0,69,0.00,,---,0.00,VWS V14.01,2013-03-17 01:25:00,
2013-03-16 21:29:00,28.9,20.0,30.00,WNW,295,1.0,5.0,69,0.00,,---,0.00,VWS V14.01,2013-03-17 01:29:00,
2013-03-16 21:30:00,28.7,19.8,30.00,WSW,255,6.0,7.0,69,0.00,,---,0.00,VWS V14.01,2013-03-17 01:30:00,
2013-03-16 21:34:00,28.8,19.9,30.00,WNW,288,3.0,3.0,69,0.00,,---,0.00,VWS V14.01,2013-03-17 01:34:00,
2013-03-16 21:35:00,28.5,19.6,30.00,WNW,290,3.0,7.0,69,0.00,,---,0.00,VWS V14.01,2013-03-17 01:35:00,
2013-03-16 21:39:00,28.6,19.4,30.00,NNW,346,1.0,7.0,68,0.00,,---,0.00,VWS V14.01,2013-03-17 01:39:00,
2013-03-16 21:40:00,28.3,19.5,30.00,NW,308,2.0,6.0,69,0.00,,---,0.00,VWS V14.01,2013-03-17 01:40:00,
2013-03-16 21:44:00,28.4,19.5,30.00,NW,323,2.0,6.0,69,0.00,,---,0.00,VWS V14.01,2013-03-17 01:44:00,
2013-03-16 21:45:00,28.1,19.3,30.00,WNW,288,7.0,7.0,69,0.00,,---,0.00,VWS V14.01,2013-03-17 01:45:00,
2013-03-16 21:49:00,28.2,19.4,30.00,NW,309,6.0,6.0,69,0.00,,---,0.00,VWS V14.01,2013-03-17 01:49:00,
2013-03-16 21:50:00,28.0,19.5,30.01,NW,318,4.0,7.0,70,0.00,,---,0.00,VWS V14.01,2013-03-17 01:50:00,
2013-03-16 21:54:00,28.1,19.3,30.00,West,276,1.0,7.0,69,0.00,,---,0.00,VWS V14.01,2013-03-17 01:54:00,
2013-03-16 21:55:00,27.7,19.5,30.01,WNW,295,2.0,4.0,71,0.00,,---,0.00,VWS V14.01,2013-03-17 01:55:00,
2013-03-16 21:59:00,27.9,19.4,30.01,SW,229,0.0,4.0,70,0.00,,---,0.00,VWS V14.01,2013-03-17 01:59:00,
2013-03-16 22:00:00,27.4,19.6,30.01,WSW,248,2.0,7.0,72,0.00,,---,0.00,VWS V14.01,2013-03-17 02:00:00,
2013-03-16 22:04:00,27.5,19.7,30.01,NW,314,2.0,3.0,72,0.00,,---,0.00,VWS V14.01,2013-03-17 02:04:00,
2013-03-16 22:05:00,27.2,19.7,30.02,NNW,335,4.0,9.0,73,0.00,,---,0.00,VWS V14.01,2013-03-17 02:05:00,
2013-03-16 22:09:00,27.3,19.8,30.01,SW,236,4.0,5.0,73,0.00,,---,0.00,VWS V14.01,2013-03-17 02:09:00,
2013-03-16 22:10:00,26.9,19.4,30.02,NW,308,4.0,8.0,73,0.00,,---,0.00,VWS V14.01,2013-03-17 02:10:00,
2013-03-16 22:14:00,27.1,19.6,30.02,NNW,342,1.0,8.0,73,0.00,,---,0.00,VWS V14.01,2013-03-17 02:14:00,
2013-03-16 22:15:00,26.7,19.5,30.03,WNW,284,0.0,6.0,74,0.00,,---,0.00,VWS V14.01,2013-03-17 02:15:00,
2013-03-16 22:19:00,26.8,19.6,30.02,NW,319,1.0,6.0,74,0.00,,---,0.00,VWS V14.01,2013-03-17 02:19:00,
2013-03-16 22:20:00,26.4,19.2,30.03,WSW,256,5.0,5.0,74,0.00,,---,0.00,VWS V14.01,2013-03-17 02:20:00,
2013-03-16 22:24:00,26.5,19.4,30.03,WNW,296,4.0,5.0,74,0.00,,---,0.00,VWS V14.01,2013-03-17 02:24:00,
2013-03-16 22:25:00,26.2,19.1,30.03,WNW,297,2.0,7.0,74,0.00,,---,0.00,VWS V14.01,2013-03-17 02:25:00,
2013-03-16 22:29:00,26.3,19.1,30.03,NW,323,4.0,7.0,74,0.00,,---,0.00,VWS V14.01,2013-03-17 02:29:00,
2013-03-16 22:30:00,26.1,19.0,30.04,WNW,293,2.0,6.0,74,0.00,,---,0.00,VWS V14.01,2013-03-17 02:30:00,
2013-03-16 22:34:00,26.1,19.0,30.04,SW,231,2.0,5.0,74,0.00,,---,0.00,VWS V14.01,2013-03-17 02:34:00,
2013-03-16 22:35:00,25.9,18.8,30.04,NW,309,0.0,5.0,74,0.00,,---,0.00,VWS V14.01,2013-03-17 02:35:00,
2013-03-16 22:39:00,26.0,18.9,30.04,WNW,295,2.0,5.0,74,0.00,,---,0.00,VWS V14.01,2013-03-17 02:39:00,
2013-03-16 22:40:00,25.7,18.9,30.04,WNW,294,1.0,6.0,75,0.00,,---,0.00,VWS V14.01,2013-03-17 02:40:00,
2013-03-16 22:44:00,25.8,18.7,30.04,NW,309,5.0,5.0,74,0.00,,---,0.00,VWS V14.01,2013-03-17 02:44:00,
2013-03-16 22:45:00,25.5,18.7,30.05,WNW,285,3.0,8.0,75,0.00,,---,0.00,VWS V14.01,2013-03-17 02:45:00,
2013-03-16 22:49:00,25.6,18.8,30.04,NNW,328,2.0,8.0,75,0.00,,---,0.00,VWS V14.01,2013-03-17 02:49:00,
2013-03-16 22:50:00,25.4,18.6,30.05,SW,236,0.0,6.0,75,0.00,,---,0.00,VWS V14.01,2013-03-17 02:50:00,
2013-03-16 22:54:00,25.5,18.7,30.05,SW,231,2.0,6.0,75,0.00,,---,0.00,VWS V14.01,2013-03-17 02:54:00,
2013-03-16 22:55:00,25.3,18.5,30.05,WNW,296,2.0,8.0,75,0.00,,---,0.00,VWS V14.01,2013-03-17 02:55:00,
2013-03-16 22:59:00,25.4,18.6,30.05,SSW,212,2.0,8.0,75,0.00,,---,0.00,VWS V14.01,2013-03-17 02:59:00,
2013-03-16 23:00:00,25.2,18.4,30.05,SW,228,0.0,8.0,75,0.00,,---,0.00,VWS V14.01,2013-03-17 03:00:00,
2013-03-16 23:04:00,25.3,18.5,30.05,NW,305,4.0,8.0,75,0.00,,---,0.00,VWS V14.01,2013-03-17 03:04:00,
2013-03-16 23:05:00,25.1,18.3,30.05,WSW,253,0.0,5.0,75,0.00,,---,0.00,VWS V14.01,2013-03-17 03:05:00,
2013-03-16 23:09:00,25.1,18.3,30.05,WNW,297,2.0,5.0,75,0.00,,---,0.00,VWS V14.01,2013-03-17 03:09:00,
2013-03-16 23:10:00,25.0,18.2,30.06,SW,226,0.0,5.0,75,0.00,,---,0.00,VWS V14.01,2013-03-17 03:10:00,
2013-03-16 23:14:00,25.0,18.2,30.06,WNW,283,0.0,3.0,75,0.00,,---,0.00,VWS V14.01,2013-03-17 03:14:00,
2013-03-16 23:15:00,24.8,18.0,30.06,WNW,285,0.0,4.0,75,0.00,,---,0.00,VWS V14.01,2013-03-17 03:15:00,
2013-03-16 23:19:00,24.9,18.1,30.06,NNW,344,2.0,4.0,75,0.00,,---,0.00,VWS V14.01,2013-03-17 03:19:00,
2013-03-16 23:20:00,24.6,18.1,30.07,West,262,0.0,4.0,76,0.00,,---,0.00,VWS V14.01,2013-03-17 03:20:00,
2013-03-16 23:24:00,24.7,17.9,30.07,North,349,1.0,2.0,75,0.00,,---,0.00,VWS V14.01,2013-03-17 03:24:00,
2013-03-16 23:25:00,24.5,18.0,30.06,West,280,0.0,3.0,76,0.00,,---,0.00,VWS V14.01,2013-03-17 03:25:00,
2013-03-16 23:29:00,24.6,18.1,30.07,WNW,290,1.0,3.0,76,0.00,,---,0.00,VWS V14.01,2013-03-17 03:29:00,
2013-03-16 23:30:00,24.3,17.8,30.07,West,263,0.0,3.0,76,0.00,,---,0.00,VWS V14.01,2013-03-17 03:30:00,
2013-03-16 23:34:00,24.4,17.9,30.07,West,277,0.0,1.0,76,0.00,,---,0.00,VWS V14.01,2013-03-17 03:34:00,
2013-03-16 23:35:00,24.2,18.0,30.07,WNW,293,2.0,3.0,77,0.00,,---,0.00,VWS V14.01,2013-03-17 03:35:00,
2013-03-16 23:39:00,24.2,17.7,30.07,West,265,1.0,3.0,76,0.00,,---,0.00,VWS V14.01,2013-03-17 03:39:00,
2013-03-16 23:40:00,24.0,17.9,30.07,West,278,0.0,2.0,77,0.00,,---,0.00,VWS V14.01,2013-03-17 03:40:00,
2013-03-16 23:44:00,24.1,18.0,30.07,WNW,290,0.0,2.0,77,0.00,,---,0.00,VWS V14.01,2013-03-17 03:44:00,
2013-03-16 23:45:00,23.9,17.8,30.07,West,265,0.0,3.0,77,0.00,,---,0.00,VWS V14.01,2013-03-17 03:45:00,
2013-03-16 23:49:00,23.9,17.8,30.07,WSW,246,1.0,3.0,77,0.00,,---,0.00,VWS V14.01,2013-03-17 03:49:00,
2013-03-16 23:50:00,23.6,17.5,30.07,NW,313,0.0,3.0,77,0.00,,---,0.00,VWS V14.01,2013-03-17 03:50:00,
2013-03-16 23:54:00,23.8,17.7,30.07,NW,305,0.0,1.0,77,0.00,,---,0.00,VWS V14.01,2013-03-17 03:54:00,
2013-03-16 23:55:00,23.5,17.7,30.07,SW,214,0.0,3.0,78,0.00,,---,0.00,VWS V14.01,2013-03-17 03:55:00,
2013-03-16 23:59:00,23.6,17.8,30.07,WSW,250,0.0,3.0,78,0.00,,---,0.00,VWS V14.01,2013-03-17 03:59:00,